This demonstration page uses our WeatherBlox Daily Observations layout. Learn more.

Left ArrowRight Arrow

39.51506, -84.39828

Hourly Observations for June 18, 2019

Temp ( °F °C ) Dew Point ( °F °C ) Humidity (%) Winds ( mph kmh ) Pressure ( in mb ) Visibility ( mi km ) Precip ( " mm )
12:15 am 00:15 Cloudy with Mist and Fog 66 19 66 18.9 99 99 Calm 29.98 1015 7 11 0.00 0.00
12:35 am 00:35 Cloudy with Mist and Fog 66 19 66 18.9 99 99 Calm 29.98 1015 5 8 0.00 0.00
12:55 am 00:55 Cloudy with Mist and Fog 67 19.2 66 19.1 99 99 SW 6 9 29.98 1015 7 11 0.00 0.00
1:15 am 01:15 Cloudy 66 19 66 18.9 99 99 SW 7 11 29.97 1015 7 11 0.00 0.00
1:35 am 01:35 Mostly Cloudy with Mist and Fog 66 18.9 66 18.7 99 99 WSW 5 7 29.97 1015 5 8 0.00 0.00
1:55 am 01:55 Clear with Mist and Fog 65 18.6 65 18.4 99 99 WSW 5 7 29.97 1015 5 8 0.00 0.00
2:15 am 02:15 Clear with Mist and Fog 65 18.5 65 18.3 99 99 WSW 3 6 29.96 1014 5 8 0.00 0.00
2:35 am 02:35 Cloudy with Mist and Fog 65 18.5 65 18.3 99 99 Calm 29.96 1014 4 6 0.00 0.00
2:55 am 02:55 Partly Cloudy with Mist and Fog 65 18.1 64 18 99 99 Calm 29.96 1015 3 4 0.00 0.00
3:15 am 03:15 Partly Cloudy with Mist and Fog 65 18.3 65 18.1 99 99 Calm 29.95 1014 2 3 0.00 0.00
3:35 am 03:35 Cloudy with Mist and Fog 64 18 64 17.8 99 99 Calm 29.94 1014 2 3 0.00 0.00
3:55 am 03:55 Cloudy with Mist and Fog 65 18.4 65 18.3 99 99 Calm 29.94 1014 3 4 0.00 0.00
4:15 am 04:15 Cloudy with Mist and Fog 65 18.4 65 18.3 99 99 Calm 29.95 1014 2 3 0.00 0.00
4:35 am 04:35 Cloudy with Mist and Fog 65 18.4 65 18.3 99 99 SSW 5 7 29.95 1014 3 4 0.00 0.00
4:55 am 04:55 Cloudy with Mist and Fog 66 18.8 66 18.7 99 99 SSW 3 6 29.96 1014 4 6 0.00 0.00
5:15 am 05:15 Cloudy with Mist and Fog 66 18.9 66 18.7 99 99 W 3 6 29.95 1014 4 6 0.00 0.00
5:35 am 05:35 Cloudy with Mist and Fog 66 18.9 66 18.8 99 99 Calm 29.95 1014 3 5 0.00 0.00
5:55 am 05:55 Cloudy with Mist and Fog 66 19 66 18.8 99 99 WSW 3 6 29.95 1014 3 5 0.00 0.00
6:15 am 06:15 Cloudy with Mist and Fog 66 19.1 66 18.9 99 99 Calm 29.94 1014 2 3 0.00 0.00
6:35 am 06:35 Cloudy with Mist and Fog 66 19.1 66 18.9 99 99 Calm 29.94 1014 2 2 0.00 0.00
6:55 am 06:55 Cloudy with Mist and Fog 67 19.2 66 19 99 99 Calm 29.94 1014 2 3 0.00 0.00
7:15 am 07:15 Cloudy with Mist and Fog 67 19.4 67 19.2 99 99 Calm 29.95 1014 2 3 0.00 0.00
7:35 am 07:35 Cloudy with Mist and Fog 67 19.6 67 19.4 99 99 SW 3 6 29.95 1014 3 4 0.00 0.00
7:55 am 07:55 Cloudy with Mist and Fog 67 19.7 67 19.4 98 98 Calm 29.95 1014 3 5 0.00 0.00
8:15 am 08:15 Cloudy with Mist and Fog 68 20 67 19.7 98 98 SW 5 7 29.95 1014 2 3 0.00 0.00
8:35 am 08:35 Cloudy with Mist and Fog 68 20.1 68 19.8 98 98 SSW 5 7 29.95 1014 3 4 0.00 0.00
8:55 am 08:55 Cloudy with Mist and Fog 69 20.3 68 19.8 97 97 Calm 29.95 1014 4 6 0.00 0.00
9:15 am 09:15 Cloudy with Mist and Fog 69 20.4 68 19.8 96 96 Calm 29.95 1014 4 6 0.00 0.00
9:35 am 09:35 Mostly Cloudy with Light Rain 69 20.3 68 19.8 97 97 Calm 29.95 1014 3 5 0.01 0.25
9:55 am 09:55 Partly Cloudy with Light Rain 69 20.4 68 20 98 98 Calm 29.95 1014 3 4 0.02 0.51
10:15 am 10:15 Mostly Cloudy with Rain 69 20.3 68 19.9 98 98 Calm 29.94 1014 2 3 0.06 1.52
10:35 am 10:35 Cloudy with Light Rain 69 20.6 68 20.2 98 98 Calm 29.94 1014 3 5 0.10 2.54
10:55 am 10:55 Cloudy with Mist and Fog 70 21.3 69 20.7 96 96 Calm 29.94 1014 4 6 0.10 2.54
11:15 am 11:15 Cloudy 71 21.6 69 20.6 94 94 Calm 29.94 1014 7 11 0.00 0.00
11:35 am 11:35 Cloudy 72 22.1 70 20.9 93 93 WSW 3 6 29.94 1014 10 16 0.00 0.00
11:55 am 11:55 Cloudy 73 22.8 69 20.8 89 89 W 3 6 29.93 1013 10 16 0.00 0.00
12:15 pm 12:15 Cloudy 73 22.7 70 20.9 90 90 NNW 7 11 29.93 1013 10 16 0.00 0.00
12:35 pm 12:35 Mostly Cloudy 73 22.7 70 21 90 90 WNW 5 7 29.93 1013 10 16 0.00 0.00
12:55 pm 12:55 Cloudy 74 23.2 70 21.1 88 88 WNW 3 6 29.93 1013 10 16 0.00 0.00
1:15 pm 13:15 Cloudy 75 23.8 70 20.9 84 84 ESE 3 6 29.92 1013 10 16 0.00 0.00
1:35 pm 13:35 Cloudy with Rain 74 23.1 70 21 88 88 Calm 29.92 1013 7 11 0.01 0.25
1:55 pm 13:55 Mostly Cloudy with Light Rain 73 23 70 20.9 88 88 Calm 29.91 1013 10 16 0.02 0.51
2:15 pm 14:15 Partly Cloudy 75 23.7 70 21.2 86 86 Calm 29.90 1012 10 16 0.00 0.00
2:35 pm 14:35 Cloudy 75 24.1 71 21.4 85 85 SSW 6 9 29.90 1012 10 16 0.00 0.00
2:55 pm 14:55 Sunny 74 23.5 71 21.4 88 88 S 7 11 29.89 1012 10 16 0.00 0.00
3:15 pm 15:15 Sunny 76 24.7 72 22 85 85 S 9 15 29.88 1012 10 16 0.00 0.00
3:35 pm 15:35 Partly Cloudy 75 23.9 70 21.2 85 85 S 7 11 29.89 1012 10 16 0.00 0.00
3:55 pm 15:55 Cloudy 75 23.7 70 21.1 85 85 SSE 7 11 29.89 1012 10 16 0.00 0.00
4:15 pm 16:15 Mostly Cloudy 77 24.9 70 21.1 79 79 SW 6 9 29.87 1012 10 16 0.00 0.00
4:35 pm 16:35 Sunny 79 25.9 70 21.1 75 75 SW 5 7 29.86 1011 10 16 0.00 0.00
4:55 pm 16:55 Partly Cloudy 79 26 70 21 74 74 WSW 7 11 29.85 1011 10 16 0.00 0.00
5:15 pm 17:15 Partly Cloudy 77 24.9 70 20.9 79 79 SW 6 9 29.85 1011 10 16 0.00 0.00
5:35 pm 17:35 Sunny 77 25.1 70 21.2 79 79 SW 7 11 29.84 1011 10 16 0.00 0.00
5:55 pm 17:55 Sunny 78 25.3 70 21 77 77 WSW 8 13 29.84 1011 10 16 0.00 0.00
6:15 pm 18:15 Mostly Cloudy 78 25.8 70 20.9 74 74 WSW 5 7 29.84 1011 10 16 0.00 0.00
6:35 pm 18:35 Partly Cloudy 78 25.4 69 20.3 73 73 Calm 29.83 1010 10 16 0.00 0.00
6:55 pm 18:55 Partly Cloudy 78 25.4 69 20.5 74 74 W 3 6 29.82 1010 10 16 0.00 0.00
7:15 pm 19:15 Partly Cloudy 78 25.6 69 20.5 73 73 W 5 7 29.82 1010 10 16 0.00 0.00
7:35 pm 19:35 Sunny 78 25.6 69 20.3 73 73 NNW 3 6 29.82 1010 10 16 0.00 0.00
7:55 pm 19:55 Sunny 78 25.4 69 20.5 74 74 Calm 29.82 1010 10 16 0.00 0.00
8:15 pm 20:15 Sunny 76 24.4 70 21.2 82 82 Calm 29.83 1010 10 16 0.00 0.00
8:35 pm 20:35 Partly Cloudy 74 23.2 70 21 87 87 Calm 29.85 1011 10 16 0.00 0.00
8:55 pm 20:55 Sunny 73 22.8 69 20.7 88 88 ENE 6 9 29.85 1011 10 16 0.00 0.00
9:15 pm 21:15 Cloudy 73 22.9 69 20.5 86 86 SSW 5 7 29.85 1011 10 16 0.00 0.00
9:35 pm 21:35 Mostly Cloudy 73 23 69 20.8 87 87 SSE 3 6 29.85 1011 10 16 0.00 0.00
9:55 pm 21:55 Mostly Cloudy 73 22.5 69 20.5 89 89 S 5 7 29.85 1011 10 16 0.00 0.00
10:15 pm 22:15 Partly Cloudy 71 21.5 69 20.3 93 93 N 3 6 29.85 1011 10 16 0.00 0.00
10:35 pm 22:35 Partly Cloudy 69 20.7 68 20.1 96 96 Calm 29.85 1011 10 16 0.00 0.00
10:55 pm 22:55 Cloudy 69 20.5 68 20.2 98 98 Calm 29.86 1011 7 11 0.00 0.00
11:15 pm 23:15 Cloudy 69 20.8 69 20.4 98 98 Calm 29.86 1011 7 11 0.00 0.00
11:35 pm 23:35 Partly Cloudy with Mist and Fog 68 20.2 68 19.9 98 98 Calm 29.86 1011 5 8 0.00 0.00
11:55 pm 23:55 Mostly Cloudy with Mist and Fog 68 20.1 68 19.9 99 99 Calm 29.86 1011 5 8 0.00 0.00

Powered by AerisWeather